When you browse on this site, cookies collect data to enhance your experience and personalize the content and advertising you see.
Visit our Privacy Policy to learn more. By continuing to use the site, you agree to this use of cookies and data.
  • In Hungary
  • List of Countries
  • For 7 days
  • Water Temperature
  • Satellite Maps
  • Weather Map
  • News
  • Weather Widgets
  • user-avatar
    Login

    Hourly Weather Kpalime

    Today, 23 April, Tuesday

    Time Temperature Precipitation Wind Pressure Humidity
    00:00 +26°C° 0 mm 1 mps 735 mmHg 93%
    01:00 +26°C° 0.1 mm 1 mps 735 mmHg 93%
    02:00 +26°C° 0.1 mm 1 mps 735 mmHg 94%
    03:00 +26°C° 0.1 mm 1 mps 735 mmHg 94%
    04:00 +26°C° 0 mm 1 mps 735 mmHg 94%
    05:00 +26°C° 0 mm 1 mps 735 mmHg 94%
    06:00 +26°C° 0 mm 1 mps 735 mmHg 92%
    07:00 +28°C° 0 mm 1 mps 736 mmHg 82%
    08:00 +30°C° 0 mm 1 mps 736 mmHg 73%
    09:00 +32°C° 0 mm 1 mps 737 mmHg 63%
    10:00 +34°C° 0.2 mm 1 mps 737 mmHg 57%
    11:00 +36°C° 0.2 mm 1 mps 736 mmHg 51%
    12:00 +36°C° 0 mm 1 mps 736 mmHg 46%
    13:00 +35°C° 0.4 mm 1 mps 736 mmHg 51%
    14:00 +34°C° 0.4 mm 1 mps 735 mmHg 55%
    15:00 +32°C° 0.4 mm 1 mps 735 mmHg 60%
    16:00 +32°C° 0.1 mm 1 mps 735 mmHg 63%
    17:00 +31°C° 0.1 mm 1 mps 735 mmHg 66%
    18:00 +30°C° 0.1 mm 1 mps 735 mmHg 70%
    19:00 +29°C° 0 mm 1 mps 735 mmHg 74%
    20:00 +29°C° 0 mm 1 mps 736 mmHg 78%
    21:00 +28°C° 0 mm 1 mps 736 mmHg 83%
    22:00 +27°C° 1.2 mm 1 mps 736 mmHg 85%
    23:00 +27°C° 1.2 mm 1 mps 736 mmHg 88%

    Tomorrow, 24 April, Wednesday

    Time Temperature Precipitation Wind Pressure Humidity
    00:00 +27°C° 1.2 mm 1 mps 736 mmHg 91%
    01:00 +27°C° 0.1 mm 1 mps 736 mmHg 91%
    02:00 +27°C° 0.1 mm 1 mps 736 mmHg 91%
    03:00 +27°C° 0.1 mm 1 mps 736 mmHg 91%
    04:00 +26°C° 0 mm 1 mps 736 mmHg 92%
    05:00 +26°C° 0 mm 1 mps 736 mmHg 93%
    06:00 +24°C° 0 mm 0 mps 736 mmHg 94%
    07:00 +28°C° 0 mm 1 mps 737 mmHg 84%
    08:00 +30°C° 0 mm 1 mps 737 mmHg 74%
    09:00 +32°C° 0 mm 2 mps 738 mmHg 64%
    10:00 +33°C° 0.9 mm 1 mps 738 mmHg 61%
    11:00 +34°C° 0.9 mm 1 mps 737 mmHg 59%
    12:00 +35°C° 0.9 mm 1 mps 737 mmHg 56%
    13:00 +34°C° 3.5 mm 1 mps 736 mmHg 62%
    14:00 +34°C° 3.5 mm 2 mps 736 mmHg 67%
    15:00 +31°C° 3.5 mm 2 mps 735 mmHg 73%
    16:00 +31°C° 0.7 mm 2 mps 735 mmHg 75%
    17:00 +30°C° 0.7 mm 1 mps 736 mmHg 78%
    18:00 +29°C° 0.7 mm 1 mps 736 mmHg 81%
    19:00 +29°C° 0 mm 1 mps 736 mmHg 83%
    20:00 +28°C° 0 mm 1 mps 737 mmHg 84%
    21:00 +28°C° 0 mm 2 mps 738 mmHg 85%
    22:00 +27°C° 0 mm 1 mps 737 mmHg 86%
    23:00 +27°C° 0 mm 1 mps 737 mmHg 87%

    Day after tomorrow, 25 April, Thursday

    Time Temperature Precipitation Wind Pressure Humidity
    00:00 +27°C° 0 mm 1 mps 737 mmHg 88%
    01:00 +27°C° 0 mm 1 mps 737 mmHg 90%
    02:00 +26°C° 0 mm 1 mps 736 mmHg 91%
    03:00 +26°C° 0 mm 1 mps 736 mmHg 92%
    04:00 +26°C° 0 mm 1 mps 736 mmHg 92%
    05:00 +26°C° 0 mm 1 mps 737 mmHg 93%
    06:00 +26°C° 0 mm 1 mps 737 mmHg 93%
    07:00 +28°C° 0 mm 1 mps 738 mmHg 83%
    08:00 +30°C° 0 mm 1 mps 738 mmHg 73%
    09:00 +32°C° 0 mm 1 mps 739 mmHg 62%
    10:00 +34°C° 0 mm 1 mps 738 mmHg 57%
    11:00 +35°C° 0 mm 1 mps 738 mmHg 52%
    12:00 +37°C° 0 mm 1 mps 738 mmHg 47%
    13:00 +36°C° 0.8 mm 1 mps 737 mmHg 51%
    14:00 +36°C° 0.8 mm 2 mps 736 mmHg 55%
    15:00 +35°C° 0.8 mm 2 mps 735 mmHg 59%
    16:00 +34°C° 0 mm 2 mps 735 mmHg 61%
    17:00 +32°C° 0 mm 1 mps 735 mmHg 64%
    18:00 +31°C° 0 mm 1 mps 735 mmHg 67%
    19:00 +30°C° 0 mm 1 mps 736 mmHg 69%
    20:00 +30°C° 0 mm 2 mps 736 mmHg 72%
    21:00 +29°C° 0 mm 2 mps 737 mmHg 75%
    22:00 +28°C° 0.4 mm 1 mps 737 mmHg 79%
    23:00 +28°C° 0.4 mm 1 mps 737 mmHg 84%

    26 April, Friday

    Time Temperature Precipitation Wind Pressure Humidity
    00:00 +27°C° 0.4 mm 1 mps 737 mmHg 88%
    01:00 +27°C° 0.3 mm 1 mps 736 mmHg 89%
    02:00 +27°C° 0.3 mm 1 mps 736 mmHg 90%
    03:00 +26°C° 0.3 mm 1 mps 735 mmHg 91%
    04:00 +26°C° 0 mm 1 mps 736 mmHg 92%
    05:00 +26°C° 0 mm 1 mps 736 mmHg 92%
    06:00 +26°C° 0 mm 1 mps 736 mmHg 92%
    07:00 +28°C° 0 mm 1 mps 737 mmHg 84%
    08:00 +30°C° 0 mm 1 mps 737 mmHg 76%
    09:00 +32°C° 0 mm 2 mps 738 mmHg 68%
    10:00 +35°C° 0 mm 2 mps 737 mmHg 61%
    11:00 +37°C° 0 mm 2 mps 737 mmHg 54%
    12:00 +38°C° 0 mm 2 mps 736 mmHg 47%
    13:00 +38°C° 0.1 mm 2 mps 736 mmHg 48%
    14:00 +37°C° 0.1 mm 2 mps 735 mmHg 49%
    15:00 +36°C° 0.1 mm 1 mps 734 mmHg 50%
    16:00 +36°C° 0 mm 2 mps 734 mmHg 54%
    17:00 +35°C° 0 mm 2 mps 734 mmHg 58%
    18:00 +34°C° 0 mm 2 mps 734 mmHg 61%
    19:00 +31°C° 0 mm 2 mps 735 mmHg 67%
    20:00 +30°C° 0 mm 2 mps 736 mmHg 73%
    21:00 +29°C° 0 mm 2 mps 736 mmHg 79%
    22:00 +28°C° 0.1 mm 2 mps 736 mmHg 82%
    23:00 +28°C° 0.1 mm 2 mps 736 mmHg 85%

    27 April, Saturday

    Time Temperature Precipitation Wind Pressure Humidity
    00:00 +27°C° 0.1 mm 2 mps 736 mmHg 88%
    01:00 +27°C° 0 mm 2 mps 735 mmHg 89%
    02:00 +27°C° 0 mm 1 mps 735 mmHg 91%
    03:00 +27°C° 0 mm 1 mps 735 mmHg 92%
    04:00 +27°C° 0 mm 1 mps 735 mmHg 92%
    05:00 +27°C° 0 mm 2 mps 735 mmHg 92%
    06:00 +27°C° 0 mm 2 mps 736 mmHg 92%
    07:00 +28°C° 0 mm 2 mps 736 mmHg 84%
    08:00 +30°C° 0 mm 3 mps 736 mmHg 75%
    09:00 +33°C° 0 mm 3 mps 737 mmHg 66%
    10:00 +34°C° 0 mm 3 mps 737 mmHg 62%
    11:00 +35°C° 0 mm 3 mps 736 mmHg 57%
    12:00 +37°C° 0 mm 3 mps 736 mmHg 52%
    13:00 +36°C° 0.4 mm 3 mps 736 mmHg 53%
    14:00 +36°C° 0.4 mm 3 mps 735 mmHg 54%
    15:00 +36°C° 0.4 mm 2 mps 734 mmHg 55%
    16:00 +35°C° 0.3 mm 2 mps 735 mmHg 62%
    17:00 +32°C° 0.3 mm 2 mps 735 mmHg 69%
    18:00 +30°C° 0.3 mm 2 mps 735 mmHg 77%
    19:00 +29°C° 0.1 mm 2 mps 736 mmHg 80%
    20:00 +29°C° 0.1 mm 2 mps 736 mmHg 84%
    21:00 +28°C° 0.1 mm 2 mps 737 mmHg 88%
    22:00 +28°C° 0 mm 2 mps 737 mmHg 89%
    23:00 +27°C° 0 mm 2 mps 736 mmHg 90%

    28 April, Sunday

    Time Temperature Precipitation Wind Pressure Humidity
    00:00 +27°C° 0 mm 2 mps 736 mmHg 91%
    01:00 +27°C° 0 mm 2 mps 736 mmHg 93%
    02:00 +26°C° 0 mm 1 mps 735 mmHg 94%
    03:00 +26°C° 0 mm 1 mps 735 mmHg 95%
    04:00 +26°C° 0 mm 1 mps 735 mmHg 95%
    05:00 +26°C° 0 mm 1 mps 736 mmHg 95%
    06:00 +26°C° 0 mm 1 mps 736 mmHg 95%
    07:00 +28°C° 0 mm 2 mps 737 mmHg 86%
    08:00 +30°C° 0 mm 2 mps 737 mmHg 76%
    09:00 +33°C° 0 mm 3 mps 737 mmHg 67%
    10:00 +35°C° 0 mm 3 mps 737 mmHg 59%
    11:00 +36°C° 0 mm 3 mps 736 mmHg 51%
    12:00 +38°C° 0 mm 2 mps 736 mmHg 44%
    13:00 +38°C° 0 mm 2 mps 735 mmHg 43%
    14:00 +38°C° 0 mm 2 mps 734 mmHg 43%
    15:00 +38°C° 0 mm 2 mps 734 mmHg 43%
    16:00 +37°C° 0 mm 2 mps 734 mmHg 48%
    17:00 +36°C° 0 mm 3 mps 734 mmHg 53%
    18:00 +34°C° 0 mm 3 mps 735 mmHg 58%
    19:00 +32°C° 0 mm 2 mps 735 mmHg 66%
    20:00 +30°C° 0 mm 2 mps 736 mmHg 73%
    21:00 +28°C° 0 mm 2 mps 736 mmHg 81%
    22:00 +28°C° 0 mm 2 mps 736 mmHg 84%
    23:00 +27°C° 0 mm 1 mps 736 mmHg 87%
    Show more